Content
SEND FEEDBACK

Daily
Averages
Monthly
Summary
United States of America

ST. LOUIS, MISSOURI


Home > North America > United States > Missouri
Elevation: 535 feet     Latitude: 38 45N     Longitude: 090 22W

WEATHER
 
SELECT A DAY
Number of Records: 198,984;   Date Range: 1/1/95 - 9/30/14
 
SHARE

PRINT THIS DATA

[ ← Previous Day ]
WEATHER ALMANAC - FEBRUARY 21, 2013
[ Next Day → ]
[ °C ]   °F
Weather ElementAverageHighLow
Temperature26.5 °F32 °F (9:54 pm)24.1 °F (2:54 am)
Dewpoint21.3 °F28.9 °F (10:54 pm)14 °F (2:54 am)
Humidity80.8 %93 % (8:30 pm)63 % (4:54 am)
Barometer30.05 in30.32 in (2:54 am)29.85 in (5:32 pm)
Wind Speed12.3 mph27.6 mph (2:42 pm)
Wind Gust33.4 mph (2:42 pm)
Weather ElementAverage
Visibility3.3 mi
Wind DirectionENE (82.9 °)

Weather ElementTotal
Precipitation1.15 in
Heating Degree Days37 (Base 65)
Averaged from 51 records on February 21, 2013
WEATHER CONDITIONS BREAKOUT
WIND DIRECTION BREAKOUT
WEATHER BY HOUR - FEBRUARY 21, 2013
[ °C ]   °F
Local TimeTemperatureDewpointHumidityBarometerVisibilityWind DirectionWind SpeedGust SpeedPrecipitationEventsConditions
2:54 AM24.1 °F14.0 °F65 %30.32 in10.0 miEast (100°)4.6 mphOvercast
3:54 AM24.1 °F14.0 °F65 %30.29 in10.0 miEast (80°)8.1 mphOvercast
4:54 AM25.0 °F14.0 °F63 %30.24 in10.0 miEast (100°)12.7 mphOvercast
5:54 AM25.0 °F15.1 °F66 %30.27 in10.0 miEast (100°)12.7 mphOvercast
6:54 AM25.0 °F15.1 °F66 %30.25 in10.0 miEast (80°)11.5 mphOvercast
7:54 AM26.1 °F15.1 °F63 %30.26 in10.0 miEast (90°)13.8 mphOvercast
8:54 AM26.1 °F15.1 °F63 %30.24 in10.0 miEast (100°)15.0 mphOvercast
9:39 AM26.6 °F15.8 °F64 %30.20 in1.8 miESE (120°)10.4 mph0.00 inSnowLight Snow
9:46 AM24.8 °F17.6 °F74 %30.18 in0.8 miEast (100°)10.4 mph0.01 inSnowLight Snow
9:54 AM25.0 °F19.0 °F78 %30.17 in0.8 miEast (80°)16.1 mph21.9 mph0.01 inSnowLight Snow
10:16 AM24.8 °F19.4 °F80 %30.10 in1.0 miEast (80°)12.7 mph0.02 inSnowLight Snow
10:26 AM24.8 °F19.4 °F80 %30.17 in5.0 miEast (100°)3.5 mph18.4 mph0.03 inSnowLight Snow
10:45 AM24.8 °F19.4 °F80 %30.08 in1.8 miEast (90°)15.0 mph25.3 mph0.04 inSnowLight Snow
10:54 AM25.0 °F19.9 °F81 %30.09 in3.0 miEast (80°)18.4 mph26.5 mph0.05 inSnowLight Snow
11:03 AM26.6 °F21.2 °F80 %30.04 in3.0 miENE (70°)20.7 mph26.5 mph0.00 inRainLight Freezing Rain
11:18 AM26.6 °F21.2 °F80 %30.09 in3.0 miEast (100°)9.2 mph21.9 mph0.02 inRainLight Freezing Rain
11:31 AM26.6 °F21.2 °F80 %30.06 in3.0 miENE (70°)17.3 mph0.02 inSnowLight Snow
11:44 AM26.6 °F21.2 °F80 %30.12 in3.0 miNE (40°)10.4 mph20.7 mph0.03 inSnowLight Snow
11:54 AM26.1 °F21.9 °F84 %30.12 in3.0 miENE (60°)12.7 mph0.04 inSnowLight Snow
12:01 PM26.6 °F21.2 °F80 %30.10 in1.8 miNE (40°)11.5 mph0.01 inSnowLight Snow
12:14 PM26.6 °F21.2 °F80 %30.16 in0.5 miNNW (340°)4.6 mph0.02 inFog-SnowSnow
12:17 PM24.8 °F21.2 °F86 %30.14 in0.2 miNNE (20°)6.9 mph0.03 inFog-SnowSnow
12:25 PM24.8 °F21.2 °F86 %30.15 in0.2 miNE (40°)5.8 mph0.05 inFog-SnowHeavy Snow
12:34 PM24.8 °F21.2 °F86 %30.12 in0.2 miNE (50°)11.5 mph0.08 inFog-SnowSnow
12:43 PM24.8 °F21.2 °F86 %30.10 in0.2 miNE (50°)13.8 mph0.10 inFog-SnowSnow
12:48 PM24.8 °F21.2 °F86 %30.09 in0.5 miENE (60°)15.0 mph0.10 inFog-SnowSnow
12:54 PM25.0 °F21.9 °F88 %30.13 in0.2 miNE (50°)12.7 mph0.10 inFog-SnowSnow
1:02 PM24.8 °F21.2 °F86 %30.12 in0.2 miNE (40°)8.1 mph0.01 inFog-SnowSnow
1:15 PM24.8 °F21.2 °F86 %30.13 in0.2 miNE (50°)10.4 mph0.03 inFog-SnowHeavy Snow
1:29 PM24.8 °F21.2 °F86 %30.10 in0.2 miENE (60°)11.5 mph0.06 inFog-SnowSnow
1:54 PM25.0 °F21.9 °F88 %30.12 in0.2 miENE (70°)12.7 mph0.09 inFog-SnowHeavy Snow
2:32 PM24.8 °F21.2 °F86 %30.00 in0.2 miEast (80°)21.9 mph27.6 mph0.02 inFog-SnowSnow
2:42 PM24.8 °F21.2 °F86 %29.92 in0.5 miENE (70°)27.6 mph33.4 mph0.03 inFog-SnowLight Snow
2:50 PM24.8 °F21.2 °F86 %29.96 in0.5 miENE (70°)21.9 mph29.9 mph0.04 inFog-SnowLight Snow
2:54 PM25.0 °F21.9 °F88 %29.99 in0.5 miEast (80°)24.2 mph29.9 mph0.04 inFog-SnowLight Snow
3:47 PM26.6 °F21.2 °F80 %29.92 in2.0 miEast (90°)16.1 mph24.2 mph0.00 inOvercast
3:54 PM27.0 °F21.9 °F81 %29.94 in2.0 miEast (90°)15.0 mph24.2 mph0.00 inIce Pellets
4:10 PM26.6 °F21.2 °F80 %29.90 in4.0 miEast (90°)18.4 mph24.2 mph0.00 inIce Pellets
4:54 PM28.0 °F23.0 °F81 %29.90 in1.2 miEast (100°)15.0 mph21.9 mph0.02 inSnowSnow
5:10 PM28.4 °F24.8 °F86 %29.88 in1.5 miEast (100°)9.2 mph0.00 inSnowSnow
5:16 PM28.4 °F24.8 °F86 %29.90 in3.0 miEast (100°)10.4 mph19.6 mphIce Pellets
5:32 PM28.4 °F24.8 °F86 %29.85 in2.5 miEast (90°)15.0 mph19.6 mph0.02 inRainLight Freezing Rain
5:54 PM28.9 °F25.0 °F85 %29.88 in5.0 miEast (90°)13.8 mph25.3 mph0.02 inRainLight Freezing Rain
6:03 PM28.4 °F24.8 °F86 %29.86 in10.0 miEast (100°)11.5 mph19.6 mph0.00 inIce Pellets
6:54 PM30.0 °F26.1 °F85 %29.88 in10.0 miEast (100°)11.5 mph19.6 mph0.00 inOvercast
7:54 PM30.9 °F26.1 °F82 %29.87 in10.0 miESE (120°)12.7 mph21.9 mphOvercast
8:30 PM30.2 °F28.4 °F93 %29.86 in2.5 miSE (130°)9.2 mph0.00 inRainLight Freezing Rain
8:54 PM30.9 °F28.0 °F89 %29.89 in2.5 miVariable4.6 mph0.00 inRainLight Freezing Rain
9:54 PM32.0 °F28.0 °F85 %29.86 in2.0 miESE (110°)5.8 mph0.01 inOvercast
10:54 PM32.0 °F28.9 °F88 %29.85 in2.0 miESE (110°)4.6 mphOvercast
11:54 PM32.0 °F28.9 °F88 %29.85 in2.0 miCalm0.00 inSnowLight Snow
Hourly data recorded from KSUS, located miles away from St. Louis, Missouri







STORIES FROM OUR PARTNERS